Погода в Волостниковке

Россия / Ульяновская область     54°43′25″N   49°01′19″E
темп.,
°C
ветер,
м/с
пор.,
м/с
влажн.,
%
обл.,
%
осадки,
мм/ч
давл.,
гПа
погр.,
м
14 мая, пт
пт1401:00+16ююв47697 0.0 1021113
04:00+15юв237079 0.1 102147
07:00+16ююв486629 0.0 1021208
10:00+19ю695534 0.0 1021334
13:00+21ю71051100 0.0 1020483
16:00+22ю610496 0.0 1020727
19:00+19ююз36640 0.0 101999
22:00+16ю3473100 0.0 102047
15 мая, сб
сб1501:00+15ю3572100 0.0 102066
04:00+14ю4666100 0.0 102071
07:00+15ю596398 0.0 1019135
10:00+19ю585583 0.0 1020214
13:00+22ю7104665 0.0 1019406
16:00+23ю611447 0.0 1019601
19:00+20ю48575 0.0 1018116
22:00+17ю48625 0.0 1018104
16 мая, вс
вс1601:00+16ю411575 0.0 1017140
04:00+15ю485920 0.0 101787
07:00+16ю496421 0.0 1018141
10:00+20ююз575473 0.0 1017227
13:00+23ю68465 0.0 1017500
16:00+24ююз594497 0.0 10161079
19:00+20ююз485934 0.0 1016108
22:00+17юз34689 0.0 101644
17 мая, пн
пн1701:00+15ююз33685 0.0 101721
04:00+15ююз226814 0.0 101811
07:00+16юв116555 0.0 101839
10:00+19ююз225797 0.0 1018173
13:00+23ююз575017 0.0 1018320
16:00+25ююз35435 0.0 1017644
19:00+21юз116280 0.0 101744
22:00+17вюв226035 0.0 101715
18 мая, вт
вт1801:00+16ююв1168100 0.0 101711
04:00+15ю226599 0.0 101716
07:00+17ю3463100 0.0 101763
10:00+20ююз3454100 0.0 1017151
13:00+23ююз3542100 0.0 1016407
16:00+23ююз4647100 0.0 1016315
19:00+22ю225871 0.0 101517
22:00+18ю116880 0.0 101611